STARLINK-11440, 62513

Orbit data source: Space-Track

STARLINK-11440, 62513 is a payload satellite owned by SpaceX/Seattle (US) in LEO that was launched on Wed, 08 Jan 2025 UTC via an FALCON 9 launch vehicle from the Air Force Eastern Test Range (AFETR). Payload-class satellites include a variety of spacecraft equipped with specific instruments for various scientific and technological missions. These include communications satellites like Starlink; space stations such as the ISS; scientific satellites like the Hubble; Earth observation satellites from companies like Planet Labs, Umbra, and HawkEye 360; GPS; miniature CubeSats for education and research; and military/defense satellites.

Loading next visibility...
Identifier
62513, 2025-004C
Orbit
LEO
Last TLE update
5 hours ago
Origin
Manufacturer
SpaceX/Seattle
Mission
Operational Commercial Communications
Bus & Motor
STARLINK V2M, Unknown motor
Mass
730 kg wet, ~700 kg dry
Launch date (UTC)
2025-01-08 (6 months ago)
Launch vehicle
FALCON 9
Launch site
Air Force Eastern Test Range (AFETR)
Object type
Payload
Rocket body
Debris
Shape & HBR
Box + 2 Pan, 29 m
Radar Cross Section
36.964 m², Large (>1 m²)

Expand to show TLE details & history

TLE from 5 hours ago
0 STARLINK-11440
1 62513U 25004C   25182.20121989  .00265097  00000-0  19950-2 0  9993
2 62513  43.0006 146.8273 0014835 281.9792  77.9413 15.70822980 28566
Epoch: 2025-07-01T04:49Z
TLE epoch observation values (Epoch: 2025-07-01T04:49:45.398Z)
Latitude
0.00001°
Longitude
154.88808°
Altitude
354.242 km
Speed
7.7 km/s
True Right ascension
09h 47m 18s
True Declination
0° 00' 00"
Sunlit
Object was in daylight at epoch
Visualization orbit readout
Latitude
42.66135°
Longitude
-105.6797°
Altitude
369.169 km
Speed
7.688 km/s
Apparent Right ascension
12h 58m 27s
Apparent Declination
4° 31' 39"
Sunlit
Object is in daylight
Visualization observer readout
Local Sidereal Time
21:27:40
Azimuth
299.477° NW
Elevation
-24.376°
Doppler factor
1
Orbital elements
Apogee altitude
368.519 km
Perigee altitude
348.531 km
Semi-major axis
6,736.662 km
Eccentricity
0.00148
Inclination
43.0006°
RAAN
146.8273°
Arg. of periapsis
281.9792°
True anomaly
Unknown
Mean anomaly
77.9413°
Eccentric anomaly
Unknown
Mean motion
3.92533 °/min
Orbital period
91.71 mins
BSTAR
0.001995
Loading maneuver chart data...
Loading SW <> Apogee altitude chart data...
Loading historical data...
Loading historical data...
Loading historical data...
Loading historical data...
Loading historical data...
Loading historical data...
Loading historical data...

STARLINK-11440 Visibility forecast

Observer location: undefined°, undefined°

Span
Click to sort rows by Start time (UTC) header in descending order
Start Az.
Max El. time (UTC)
Max El. Az.
Max El.
End time (UTC)
End Az.
5 mins2025-07-02 00:52:19.746Z212.484° SW2025-07-02 00:54:19.746Z168.511° S25.854°2025-07-02 00:57:19.746Z87.642° E
4 mins2025-07-02 02:29:19.746Z273.912° WNW2025-07-02 02:30:19.746Z304.932° NW39.133°2025-07-02 02:33:19.746Z68.058° E
4 mins2025-07-02 04:05:19.746Z299.145° NW2025-07-02 04:07:19.746Z24.913° NE34.444°2025-07-02 04:09:19.746Z75.762° E
4 mins2025-07-02 05:41:19.746Z282.789° WNW2025-07-02 05:43:19.746Z180.379° SSW43.246°2025-07-02 05:45:19.746Z119.148° SE
|